Regional Weather Roundup
Issued by NWS Sterling, VA

Home | Current Version | Previous Version | Graphics & Text | Print | Product List | Glossary On
Versions: 1 2 3 4 5 6 7 8 9 10 11 12 13 14 15 16 17 18 19 20 21 22 23 24 25 26 27 28 29 30 31 32 33 34 35 36 37 38 39 40 41 42 43 44 45 46 47 48 49 50
205
ASUS41 KLWX 162210
RWRLWX

REGIONAL WEATHER ROUNDUP
NATIONAL WEATHER SERVICE BALTIMORE MD/WASHINGTON DC
500 PM EST MON JAN 16 2017

Note: "FAIR" indicates few or no clouds below 12,000 feet
with no significant weather and/or obstructions to visibility.
 TC=TEMPERATURE CELSIUS

 * =Non NWS site. Station does not report precipitation (e.g. rain,
    snow, etc.), thunder, or fog.

DCZ001-MDZ009-015-VAZ040>042-051-053>054-162300-
WASHINGTON METRO

CITY           SKY/WX    TMP DP  RH WIND       PRES   REMARKS
WASHINGTON NAT CLOUDY    45  31  58 S9        30.38S
DULLES         CLOUDY    44  35  70 S6        30.36S
ANDREWS AFB    CLOUDY    43  29  57 S6        30.36S
FT BELVOIR     CLOUDY    44  31  59 SE5       30.37F
QUANTICO       CLOUDY    42  37  82 S6        30.38F
LEESBURG*      CLOUDY    45  41  87 MISG      30.36S
MANASSAS*      CLOUDY   N/A N/A N/A S6        30.37S
GAITHERSBURG*  CLOUDY    43  28  56 S7        30.39F

$$

MDZ006>007-011-014-162300-
BALTIMORE METRO

CITY           SKY/WX    TMP DP  RH WIND       PRES   REMARKS
BWI AIRPORT    CLOUDY    41  30  65 SE5       30.37F
MD SCIENCE CTR   N/A     41  27  57 MISG      30.39S
MARTIN STATE   CLOUDY    39  32  75 SE3       30.41S
ANNAPOLIS      CLOUDY    42  28  57 S8        30.39S
FORT MEADE*    CLOUDY    41  32  70 SE6       30.39F

$$

MDZ012-015-019>023-162300-
MARYLAND EASTERN SHORE

CITY           SKY/WX    TMP DP  RH WIND       PRES   REMARKS
OCEAN CITY     CLOUDY    40  29  64 CALM      30.41S
SALISBURY      CLOUDY    44  28  53 CALM      30.39S
BAY BRIDGE AP* CLOUDY    41  30  65 S6        30.39S
CAMBRIDGE*     CLOUDY    41  27  56 S3        30.39R
EASTON*        CLOUDY    45  28  53 CALM      30.43S

$$

MDZ017>025-162300-
SOUTHERN MARYLAND

CITY           SKY/WX    TMP DP  RH WIND       PRES   REMARKS
PATUXENT RIVER CLOUDY    40  31  70 SE5       30.39S
ST INIGOES     NOT AVBL
LEONARDTOWN*   CLOUDY    43  30  61 SE3       30.40S

$$

MDZ003>005-162300-
NORTH CENTRAL MARYLAND

CITY           SKY/WX    TMP DP  RH WIND       PRES   REMARKS
FREDERICK*     CLOUDY    43  36  75 S5        30.38S
HAGERSTOWN APT CLOUDY    37  27  67 N5        30.33S
WESTMINSTER*     N/A     39  30  70 SE6       30.33F

$$

MDZ501>502-162300-
WESTERN MARYLAND

CITY           SKY/WX    TMP DP  RH WIND       PRES   REMARKS
OAKLAND*         N/A     45  45 100 SW6       30.22S
CUMBERLAND*    CLOUDY    41  32  70 CALM      30.35S

$$

VAZ025>031-162300-
SHENANDOAH VALLEY

CITY           SKY/WX    TMP DP  RH WIND       PRES   REMARKS
WINCHESTER*    CLOUDY    41  36  81 E7        30.31F
FRONT ROYAL*   CLOUDY    43  37  81 NE3       30.30S
LURAY*         CLOUDY    46  43  87 SW6       30.29S
NEW MARKET*    CLOUDY    46  40  80 SW5       30.30S
STAUNTON*      CLOUDY    44  40  88 S5        30.32S
WAYNESBORO*    CLOUDY    42  40  92 E3        30.30F

$$

WVZ021-048>050-054>055-162300-
EASTERN WEST VIRGINIA PANHANDLE

CITY           SKY/WX    TMP DP  RH WIND       PRES   REMARKS
MARTINSBURG    CLOUDY    43  37  79 SE5       30.32F
PETERSBURG*    CLOUDY    47  38  71 CALM      30.29R

$$

VAZ036>039-050-162300-
CENTRAL FOOTHILLS

CITY           SKY/WX    TMP DP  RH WIND       PRES   REMARKS
CHARLOTTESVILL CLOUDY    45  41  86 S6        30.34S FOG
CULPEPER*      CLOUDY    44  40  86 S3        30.37S
ORANGE*          N/A     45  43  93 CALM      30.37S
GORDONSVILLE*  CLOUDY    43  41  93 S5        30.35S
WARRENTON*     CLOUDY    44  37  74 CALM      30.35F

$$

VAZ055>057-162300-
NORTH AND CENTRAL PIEDMONT

CITY           SKY/WX    TMP DP  RH WIND       PRES   REMARKS
FREDERICKSBRG* CLOUDY    46  37  71 S5        30.37S
STAFFORD*      CLOUDY    44  35  70 CALM      30.41S

$$

NCZ024-NYZ072-PAZ021-071-VAZ022-071-162300-
OTHER REGIONAL OBSERVATIONS

CITY           SKY/WX    TMP DP  RH WIND       PRES   REMARKS
NEW YORK CITY  CLEAR     41  23  48 VRB5      30.36F
PHILADELPHIA   CLOUDY    40  24  53 SW8       30.40S
PITTSBURGH     CLOUDY    37  33  85 NE3       30.24F
ROANOKE        CLOUDY    45  41  86 CALM      30.35S
RICHMOND       CLOUDY    43  38  82 S5        30.38S
RALEIGH        CLOUDY    50  32  50 SE5       30.36S

$$

ANZ530>537-162300-
MARINE OBSERVATIONS

STATION/POSITION TIME  TEMP    WIND        PRES
                       AIR SEA DIR/SP/G
                 (UTC) (F)     (DEG/KT/KT) (MB)
THOMAS PT LIGHT  2200   39 38  180/  5/  6   N/A
BALT KEY BRIDGE  2148   37     100/  7/  8 1029.1F
COVE POINT       2148   39     190/  6/  7 1029.9R
LEWISETTA        2148   41 42  120/  9/ 10 1028.8F
SOLOMONS ISLAND  2148   40 41  120/  5/  7   N/A
PINEY POINT      2148          150/  6/  7   N/A

$$





USA.gov is the U.S. government's official web portal to all federal, state and local government web resources and services.